Regional Weather Roundup
Issued by NWS Wakefield, VA

Home | Current Version | Previous Version | Graphics & Text | Print | Product List | Glossary On
Versions: 1 2 3 4 5 6 7 8 9 10 11 12 13 14 15 16 17 18 19 20 21 22 23 24 25 26 27 28 29 30 31 32 33 34 35 36 37 38 39 40 41 42 43 44 45 46 47 48 49 50
000
ASUS41 KAKQ 251914
RWRAKQ

REGIONAL WEATHER ROUNDUP
NATIONAL WEATHER SERVICE WAKEFIELD VA
300 PM EDT SAT APR 25 2015

Note: "fair" indicates few or no clouds below 12,000 feet with no
significant weather and/or obstructions to visibility. * = Denotes
station may not report precipitation (e.g., rain,snow,etc.),
thunder or fog.

VAZ042-051-052>054-056-252000-
NORTHERN VIRGINIA

CITY           SKY/WX    TMP DP  RH WIND       PRES   REMARKS
WASH NATIONAL  CLOUDY    53  32  44 SW3       29.85F
DULLES         CLOUDY    50  23  34 SW5       29.84F
FORT BELVOIR   CLOUDY    50  33  51 S6        29.85F
QUANTICO       CLOUDY    49  29  46 SW6       29.87F
FREDERICKSBRG* CLOUDY    49  38  67 S3        29.86F
STAFFORD*      DRIZZLE   47  31  54 S3        29.90F
WARRENTON      CLOUDY    49  31  50 S5        29.85F
CULPEPER*      CLOUDY    48  28  46 S3        29.86F
MANASSAS*      CLOUDY    50  27  40 SW6       29.86F
LEESBURG*      CLOUDY    50  27  40 S3        29.85F
WINCHESTER     CLOUDY    50  18  27 SE3       29.83F
FRONT ROYAL*   CLOUDY    48  27  43 CALM      29.81F
LURAY*         CLOUDY    50  30  46 S6        29.81F
$$

VAZ048-049-060>072-079>083-252000-
CENTRAL AND SOUTH CENTRAL VIRGINIA

CITY           SKY/WX    TMP DP  RH WIND       PRES   REMARKS
RICHMOND       LGT RAIN  48  42  80 NE5       29.87F
CHESTERFIELD*  CLOUDY    46  34  61 NE5       29.87F
PETERSBURG*    RAIN      49  46  87 E6        29.85F
HANOVER        RAIN      46  42  86 CALM      29.88F
TAPPAHANNOCK*  LGT RAIN  49  40  69 CALM      29.88F
QUINTON*       CLOUDY    46  42  86 N3        29.87F
CHARLOTTSVILLE LGT RAIN  45  35  68 SW6       29.86F
GORDONSVILLE*  CLOUDY    47  31  53 S5        29.85F
ORANGE*        LGT RAIN  50  30  46 SE3       29.87F
LOUISA*        LGT RAIN  46  41  81 S3        29.86F
BUMPASS*       CLOUDY    46  37  71 CALM      29.87F
FARMVILLE*     LGT RAIN  47  47  98 NE5       29.84F
CREWE*         CLOUDY    46  43  86 NE3       29.84F
FORT PICKETT*  CLOUDY    47  44  89 NE8       29.83F
CHASE CITY*    CLOUDY    48  48 100 CALM      29.81F
CLARKSVILLE*   CLOUDY    50  45  81 E6        29.80F
SOUTH HILL*    CLOUDY    49  46  88 CALM      29.87F
LAWRENCEVILLE* CLOUDY    49  46  92 NE6       29.82F
EMPORIA*       RAIN      46  45  93 NE6       29.84F
$$

VAZ088>098-252000-
SOUTHEAST VIRGINIA

CITY           SKY/WX    TMP DP  RH WIND       PRES   REMARKS
NORFOLK        LGT RAIN  50  42  74 E5        29.86F
VIRGINIA BEACH LGT RAIN  52  42  69 E6        29.85F
NORFOLK NAVAL  LGT RAIN  52  43  71 SE6       29.87F
WEST POINT*    CLOUDY    50  43  75 CALM      29.88F
SALUDA*        CLOUDY    47  44  87 SE3       29.87F
NEWPORT NEWS   LGT RAIN  52  44  74 E5        29.86F
LANGLEY AFB    LGT RAIN  50  43  76 E5        29.85F
FORT EUSTIS    LGT RAIN  49  44  83 SE5       29.85F
WILLIAMSBURG*  CLOUDY    52  48  87 CALM      29.87F
HR EXEC AP*    CLOUDY    52  45  76 NE6       29.87F
FRANKLIN*      RAIN      50  45  83 NE7       29.85F
WAKEFIELD      LGT RAIN  49  45  86 E5        29.86F FOG
$$

VAZ020-022-025-037-045-252000-
WEST CENTRAL AND SOUTHWEST VIRGINIA

CITY           SKY/WX    TMP DP  RH WIND       PRES   REMARKS
STAUNTON*      LGT RAIN  43  35  72 S6        29.85F
WAYNESBORO*    CLOUDY    39  35  85 S8        29.83F
HOT SPRINGS VA LGT RAIN  35  35 100 S7        29.74F VSB<1/4
LYNCHBURG      LGT RAIN  42  41  96 NE7       29.83F FOG
DANVILLE       CLOUDY    49  44  83 E5        29.82F HAZE
SOUTH BOSTON*  CLOUDY    46  43  88 CALM      29.82S
MARTINSVILLE   CLOUDY    47  41  79 E7        29.83F
ROANOKE        LGT RAIN  44  40  85 E9        29.83F FOG
BLACKSBURG     DRIZZLE   39  38  94 E5        29.82F
DUBLIN*        CLOUDY    44  43  96 E7        29.78F
MARION*        CLOUDY    48  41  76 NE8       29.76F
HILLSVILLE*    CLOUDY    49  40  70 SE6       29.76F
RICHLANDS*     CLOUDY    59  23  24 SW10G16   29.68F
WISE*          CLOUDY    61  50  67 SW16G23   29.68F
ABINGDON*      CLOUDY    60  47  62 E7        29.69F
$$

MDZ021>025-VAZ099-100-252000-
SOUTHERN MARYLAND AND THE DELMARVA PENINSULA

CITY           SKY/WX    TMP DP  RH WIND       PRES   REMARKS
PATUXENT RIVER LGT RAIN  49  40  71 S7        29.86F
BAY BRIDGE APT   N/A    N/A N/A N/A S5        29.86F
LEONARDTOWN    CLOUDY    48  39  71 S7        29.87F
DOVER          PTSUNNY   53  32  46 VRB6      29.80F
GEORGETOWN     CLOUDY    49  25  39 S5        29.85F
EASTON         MOSUNNY   50  30  46 SW6       29.90F
CAMBRIDGE      CLOUDY    52  32  46 CALM      29.85F
SALISBURY      CLOUDY    49  29  46 W3        29.85F
OCEAN CITY     CLOUDY    47  32  56 S6        29.85F
WALLOPS ISLAND LGT RAIN  46  39  76 S6        29.88F
ACCOMACK*      LGT RAIN  45  -9  10 SE3       29.88F
$$

NCZ012>017-030>032-252000-
NORTH CENTRAL AND EASTERN NORTH CAROLINA

CITY           SKY/WX    TMP DP  RH WIND       PRES   REMARKS
ROANOKE RAPIDS LGT RAIN  52  46  82 E5        29.82F
RALEIGH        LGT RAIN  56  55  97 S3        29.79F FOG
ELIZABETH CITY CLOUDY    57  43  59 E10       29.84F
AHOSKIE*       RAIN      52  48  88 NE3       29.83F
EDENTON*       DRIZZLE   59  51  75 CALM      29.83F
CURRITUCK*     DRIZZLE   54  39  58 E7        29.87F
KILL DEVIL HLS LGT RAIN  55  46  72 E7        29.82F
MANTEO         CLOUDY    56  39  52 E9        29.84F
CAPE HATTERAS  CLOUDY    61  51  70 S7        29.81F
TARBORO*       DRIZZLE   56  53  89 CALM      29.83F
GOLDSBORO      CLOUDY    57 N/A N/A CALM      29.78F
WASHINGTON     RAIN      58  53  85 CALM      29.82F
GREENVILLE     DRIZZLE   57  55  94 SW6       29.85F
NEW BERN       CLOUDY    60  53  77 SW8       29.83F
WILMINGTON     CLOUDY    64  57  78 SE7       29.80F
$$

VAZ048-252000-
ELSEWHERE

CITY           SKY/WX    TMP DP  RH WIND       PRES   REMARKS
HARRISBURG PA  PTSUNNY   52  21  29 NW7       29.81F
BALTIMORE      PTSUNNY   50  28  42 SW6       29.84F
ANNAPOLIS      CLOUDY    50  32  50 VRB3      29.84F
ANDREWS AFB    PTSUNNY   51  33  50 VRB2      29.84F
PHILADELPHIA   PTSUNNY   56  23  27 SW15G21   29.81F
HENDERSON NC   RAIN      50  43  77 E5        29.81F
GREENSBORO     CLOUDY    49  48  97 NE5       29.77F FOG
ROCKY MOUNT    LGT RAIN  57  55  93 S6        29.82F FOG
$$

VAZ100-252000-
MARINE

STATION/POSITION TIME  TEMP    WIND        PRES    WAVE   SWELL
                       AIR SEA DIR/SP/G            HT/PER HT/PER
                 (UTC) (F)     (DEG/KT/KT) (MB)    (FT/S) (FT/S)
BRANDYWINE LGT   1800          300/ 11/ 12 1011.9F
CAPE MAY NJ      1800   47 54  270/  9/ 12 1011.5F
LEWES DE         1800   48 51  270/  8/ 10 1011.8F
15NM E FENWICK I 1850   45 47              1011.0F   1/12
OCEAN-CITY-INLET 1800          210/  8/ 11 1011.7F
WACHAPREAGUE VA  1800   47 56  140/  4/  5 1012.3F
THOMAS POINT MD  1900   48 52  210/  7/  8 1011.3F
GOOSES REEF MD   1900   49 54  240/  6/  6   N/A     1
COVE POINT MD    1800   47     190/  8/  9 1012.4F
SOLOMONS ISLAND  1800      55                N/A
BISHOPS HEAD MD  1800   49 53  190/  5/  6 1011.1F
PINEY POINT MD   1800          200/  9/ 11   N/A
CAMBRIDGE MD     1800   49 58  230/  5/  8 1011.6F
LEWISETTA VA     1800   49 56              1011.7F
RAPPAHANNOCK LGT 1800          100/ 11/ 13 1012.7F
YORK RVR RNG VA  1800   50     100/  4/  6 1011.7S
YORKTOWN VA      1800   50 60  130/  5/  6 1011.8F
JAMESTOWN VA     1900   49 64  110/  4/  6 1010.3F
DOMINION TERM VA 1800   51     110/  9/ 12 1011.7F
KIPTOPEKE VA     1800      62   90/  7/ 10   N/A
CHES BAY BRIDGE  1800           70/  7/  9 1011.5F
CAPE HENRY VA    1800   50     100/  8/  9 1010.8F
CHESAPEAKE LGHT  1800   49      80/ 10/ 11 1012.7F
WILLOUBY STN VA  1800   51     100/  9/ 10 1012.1F
S CRANEY ISL VA  1800          110/  9/ 12 1011.7F
CAPE HENRY BUOY  1828      52                N/A     2/ 4
1ST LANDING BUOY 1900                      1010.8F   1/ 3
OFFSHORE WE BUOY 1811      51                N/A     2/ 4   2/ 4
64NM E OF VA BCH 1850   54 59   50/  8/ 10 1010.8F   2/ 5   2/ 5
DUCK PIER NC     1800   53 55   80/ 13/ 14 1010.1F
44056 DUCK FRF   1811      55                N/A     2/13   2/13
OREGON INLET NC  1800   57 58   60/  7/ 11 1011.3F
HATTERAS NC      1800   63 65  330/  2/  2 1010.8F
DIAMOND SHLS NC  1850   65 72  240/  6/  8 1010.2F   3/ 8   2/ 8
CAPE LOOKOUT NC  1900   61     200/  6/  7 1009.5F
$$



USA.gov is the U.S. government's official web portal to all federal, state and local government web resources and services.